RPB2507 SKBO-SKBG

Flight info

Callsign RPB2507
Flight time 0h 35m
Altitude 23000
Route OSUSU4R KOVBU A567 OPROG OPROG1C
Aircraft B738/M-SDE2E3FGHIRWXY/LB1

Departure

Time 2026-04-25 14:45
Airport El Dorado International Airport (SKBO)

Arrival

Time 2026-04-25 15:21
Airport Palonegro Airport (SKBG)
Time Latitude Longitude Altitude Speed Heading
2026-04-25 14:03 4.69908 -74.14504 8369 ft 0 kts 213°
2026-04-25 14:29 4.69911 -74.14502 8370 ft 4 kts 213°
2026-04-25 14:29 4.69932 -74.14487 8369 ft 3 kts 221°
2026-04-25 14:29 4.69941 -74.14478 8369 ft 2 kts 251°
2026-04-25 14:30 4.69942 -74.14461 8370 ft 3 kts 276°
2026-04-25 14:30 4.69928 -74.14423 8370 ft 4 kts 306°
2026-04-25 14:30 4.69925 -74.14419 8370 ft 4 kts 307°
2026-04-25 14:31 4.69941 -74.14440 8370 ft 4 kts 307°
2026-04-25 14:31 4.69953 -74.14456 8369 ft 2 kts 307°
2026-04-25 14:31 4.69960 -74.14464 8369 ft 1 kts 307°
2026-04-25 14:31 4.69964 -74.14470 8369 ft 0 kts 307°
2026-04-25 14:36 4.69979 -74.14489 8370 ft 7 kts 309°
2026-04-25 14:36 4.70028 -74.14526 8369 ft 11 kts 319°
2026-04-25 14:36 4.70074 -74.14582 8369 ft 10 kts 307°
2026-04-25 14:36 4.70126 -74.14626 8369 ft 10 kts 353°
2026-04-25 14:37 4.70184 -74.14595 8369 ft 10 kts 38°
2026-04-25 14:37 4.70237 -74.14555 8369 ft 9 kts 36°
2026-04-25 14:37 4.70289 -74.14516 8369 ft 9 kts 37°
2026-04-25 14:37 4.70339 -74.14478 8369 ft 9 kts 37°
2026-04-25 14:38 4.70357 -74.14464 8369 ft 0 kts 37°
2026-04-25 14:39 4.70359 -74.14463 8369 ft 2 kts 37°
2026-04-25 14:39 4.70379 -74.14447 8369 ft 6 kts 37°
2026-04-25 14:39 4.70419 -74.14417 8369 ft 9 kts 37°
2026-04-25 14:39 4.70474 -74.14403 8369 ft 8 kts 338°
2026-04-25 14:40 4.70514 -74.14445 8369 ft 8 kts 308°
2026-04-25 14:40 4.70548 -74.14489 8369 ft 8 kts 307°
2026-04-25 14:40 4.70581 -74.14533 8369 ft 8 kts 307°
2026-04-25 14:40 4.70617 -74.14580 8370 ft 11 kts 307°
2026-04-25 14:41 4.70672 -74.14654 8369 ft 16 kts 307°
2026-04-25 14:41 4.70749 -74.14755 8369 ft 20 kts 307°
2026-04-25 14:41 4.70839 -74.14875 8369 ft 22 kts 307°
2026-04-25 14:41 4.70930 -74.14994 8369 ft 21 kts 307°
2026-04-25 14:42 4.71015 -74.15107 8369 ft 17 kts 307°
2026-04-25 14:42 4.71039 -74.15138 8369 ft 16 kts 307°
2026-04-25 14:42 4.71121 -74.15219 8370 ft 8 kts 353°
2026-04-25 14:42 4.71173 -74.15225 8369 ft 7 kts 354°
2026-04-25 14:43 4.71224 -74.15230 8370 ft 7 kts 355°
2026-04-25 14:43 4.71273 -74.15233 8369 ft 7 kts
2026-04-25 14:43 4.71315 -74.15209 8369 ft 7 kts 42°
2026-04-25 14:43 4.71327 -74.15195 8368 ft 2 kts 65°
2026-04-25 14:44 4.71325 -74.15186 8369 ft 1 kts 108°
2026-04-25 14:44 4.71318 -74.15179 8368 ft 0 kts 130°
2026-04-25 14:44 4.71265 -74.15111 8368 ft 40 kts 127°
2026-04-25 14:45 4.70963 -74.14712 8368 ft 102 kts 127°
2026-04-25 14:45 4.70418 -74.13992 8368 ft 155 kts 127°
2026-04-25 14:45 4.69691 -74.13007 8501 ft 192 kts 125°
2026-04-25 14:45 4.68866 -74.11899 9208 ft 201 kts 124°
2026-04-25 14:46 4.68385 -74.10627 9913 ft 203 kts 89°
2026-04-25 14:46 4.68808 -74.09200 10117 ft 227 kts 55°
2026-04-25 14:46 4.70074 -74.08229 10328 ft 241 kts 15°
2026-04-25 14:46 4.71730 -74.08113 10779 ft 244 kts
2026-04-25 14:47 4.73426 -74.07953 11279 ft 246 kts 10°
2026-04-25 14:47 4.74561 -74.07712 11615 ft 247 kts 14°
2026-04-25 14:47 4.76762 -74.07081 12280 ft 250 kts 17°
2026-04-25 14:47 4.78417 -74.06546 12759 ft 252 kts 18°
2026-04-25 14:48 4.80136 -74.05986 12956 ft 269 kts 18°
2026-04-25 14:48 4.81970 -74.05378 13168 ft 284 kts 18°
2026-04-25 14:48 4.83887 -74.04736 13385 ft 301 kts 18°
2026-04-25 14:48 4.85952 -74.04040 13537 ft 324 kts 18°
2026-04-25 14:49 4.88160 -74.03294 13734 ft 345 kts 18°
2026-04-25 14:49 4.90477 -74.02508 14154 ft 356 kts 18°
2026-04-25 14:49 4.92836 -74.01708 14717 ft 359 kts 18°
2026-04-25 14:49 4.95207 -74.00904 15330 ft 361 kts 18°
2026-04-25 14:50 4.97600 -74.00093 15906 ft 364 kts 18°
2026-04-25 14:50 5.00010 -73.99277 16457 ft 368 kts 18°
2026-04-25 14:50 5.02454 -73.98464 16850 ft 371 kts 16°
2026-04-25 14:50 5.04944 -73.97783 16842 ft 373 kts 13°
2026-04-25 14:51 5.07494 -73.97172 17214 ft 378 kts 12°
2026-04-25 14:51 5.10058 -73.96571 17855 ft 378 kts 12°
2026-04-25 14:51 5.12619 -73.95959 18475 ft 380 kts 13°
2026-04-25 14:51 5.15200 -73.95331 18932 ft 383 kts 13°
2026-04-25 14:52 5.17798 -73.94688 19390 ft 387 kts 13°
2026-04-25 14:52 5.20421 -73.94035 19872 ft 389 kts 13°
2026-04-25 14:52 5.23055 -73.93379 20361 ft 391 kts 13°
2026-04-25 14:52 5.24704 -73.92968 20709 ft 392 kts 13°
2026-04-25 14:53 5.28145 -73.91832 21559 ft 389 kts 22°
2026-04-25 14:53 5.30617 -73.90751 22222 ft 387 kts 24°
2026-04-25 14:53 5.33057 -73.89613 22830 ft 386 kts 25°
2026-04-25 14:53 5.35490 -73.88472 23154 ft 387 kts 25°
2026-04-25 14:54 5.37933 -73.87341 23143 ft 386 kts 24°
2026-04-25 14:54 5.40363 -73.86233 23153 ft 386 kts 24°
2026-04-25 14:54 5.42821 -73.85128 23159 ft 387 kts 24°
2026-04-25 14:54 5.45282 -73.84029 23163 ft 388 kts 24°
2026-04-25 14:55 5.47746 -73.82936 23157 ft 388 kts 24°
2026-04-25 14:55 5.50220 -73.81839 23152 ft 389 kts 24°
2026-04-25 14:55 5.52696 -73.80743 23150 ft 389 kts 24°
2026-04-25 14:55 5.55171 -73.79648 23145 ft 389 kts 24°
2026-04-25 14:56 5.57647 -73.78552 23142 ft 389 kts 24°
2026-04-25 14:56 5.60096 -73.77468 23141 ft 388 kts 24°
2026-04-25 14:56 5.62567 -73.76374 23138 ft 388 kts 24°
2026-04-25 14:56 5.65037 -73.75280 23141 ft 388 kts 24°
2026-04-25 14:57 5.67503 -73.74188 23131 ft 387 kts 24°
2026-04-25 14:57 5.69958 -73.73100 23133 ft 387 kts 24°
2026-04-25 14:57 5.72417 -73.72011 23134 ft 387 kts 24°
2026-04-25 14:57 5.74872 -73.70923 23130 ft 386 kts 24°
2026-04-25 14:58 5.77336 -73.69831 23126 ft 386 kts 24°
2026-04-25 14:58 5.79795 -73.68741 23126 ft 386 kts 24°
2026-04-25 14:58 5.82252 -73.67652 23123 ft 386 kts 24°
2026-04-25 14:58 5.84709 -73.66563 23122 ft 386 kts 24°
2026-04-25 14:59 5.87163 -73.65475 23118 ft 386 kts 24°
2026-04-25 14:59 5.89625 -73.64383 23115 ft 387 kts 24°
2026-04-25 14:59 5.92085 -73.63292 23117 ft 387 kts 24°
2026-04-25 14:59 5.94551 -73.62199 23108 ft 387 kts 24°
2026-04-25 15:00 5.96964 -73.61114 23086 ft 376 kts 26°
2026-04-25 15:00 5.99244 -73.59916 23087 ft 366 kts 28°
2026-04-25 15:00 6.01449 -73.58669 23093 ft 364 kts 30°
2026-04-25 15:00 6.03642 -73.57402 23105 ft 365 kts 30°
2026-04-25 15:01 6.05847 -73.56126 22823 ft 367 kts 30°
2026-04-25 15:01 6.08045 -73.54860 22547 ft 363 kts 30°
2026-04-25 15:01 6.10237 -73.53605 22185 ft 361 kts 29°
2026-04-25 15:01 6.12413 -73.52364 21833 ft 358 kts 29°
2026-04-25 15:02 6.14576 -73.51134 21484 ft 356 kts 29°
2026-04-25 15:02 6.16727 -73.49913 21129 ft 354 kts 29°
2026-04-25 15:02 6.18865 -73.48700 20768 ft 352 kts 29°
2026-04-25 15:02 6.20996 -73.47491 20409 ft 351 kts 29°
2026-04-25 15:03 6.23114 -73.46290 20049 ft 349 kts 29°
2026-04-25 15:03 6.25225 -73.45093 19696 ft 348 kts 29°
2026-04-25 15:03 6.27331 -73.43898 19342 ft 347 kts 28°
2026-04-25 15:03 6.29430 -73.42707 18980 ft 347 kts 28°
2026-04-25 15:04 6.31526 -73.41518 18626 ft 345 kts 28°
2026-04-25 15:04 6.33619 -73.40331 18253 ft 345 kts 28°
2026-04-25 15:04 6.35707 -73.39146 17832 ft 345 kts 28°
2026-04-25 15:04 6.37803 -73.37957 17372 ft 346 kts 28°
2026-04-25 15:05 6.39863 -73.36788 17018 ft 344 kts 29°
2026-04-25 15:05 6.41939 -73.35610 16638 ft 342 kts 29°
2026-04-25 15:05 6.44002 -73.34438 16294 ft 340 kts 29°
2026-04-25 15:06 6.48098 -73.32113 15607 ft 336 kts 29°
2026-04-25 15:06 6.50130 -73.30958 15259 ft 334 kts 29°
2026-04-25 15:06 6.52149 -73.29811 14919 ft 333 kts 29°
2026-04-25 15:06 6.54161 -73.28669 14574 ft 331 kts 29°
2026-04-25 15:07 6.56166 -73.27531 14225 ft 330 kts 29°
2026-04-25 15:07 6.58160 -73.26398 13940 ft 327 kts 29°
2026-04-25 15:07 6.60116 -73.25285 13751 ft 320 kts 29°
2026-04-25 15:07 6.62029 -73.24196 13614 ft 313 kts 29°
2026-04-25 15:08 6.63914 -73.23122 13473 ft 310 kts 29°
2026-04-25 15:08 6.65778 -73.22061 13348 ft 308 kts 30°
2026-04-25 15:08 6.67644 -73.20998 13224 ft 308 kts 30°
2026-04-25 15:08 6.69507 -73.19938 13092 ft 308 kts 30°
2026-04-25 15:09 6.71412 -73.18963 12948 ft 308 kts 17°
2026-04-25 15:09 6.73518 -73.18719 12829 ft 307 kts 354°
2026-04-25 15:09 6.77630 -73.19825 12595 ft 307 kts 342°
2026-04-25 15:10 6.79670 -73.20473 12474 ft 308 kts 342°
2026-04-25 15:10 6.81718 -73.21123 12347 ft 309 kts 343°
2026-04-25 15:10 6.85823 -73.22405 12091 ft 309 kts 343°
2026-04-25 15:11 6.87875 -73.23039 11965 ft 308 kts 343°
2026-04-25 15:11 6.89920 -73.23668 11844 ft 307 kts 343°
2026-04-25 15:11 6.91961 -73.24294 11724 ft 306 kts 343°
2026-04-25 15:12 6.96022 -73.25539 11482 ft 304 kts 343°
2026-04-25 15:12 6.98047 -73.26159 11360 ft 303 kts 343°
2026-04-25 15:12 7.00057 -73.26775 11242 ft 302 kts 343°
2026-04-25 15:12 7.00711 -73.26976 11203 ft 302 kts 343°
2026-04-25 15:13 7.04066 -73.28003 11002 ft 301 kts 343°
2026-04-25 15:13 7.08126 -73.29173 10282 ft 300 kts 345°
2026-04-25 15:13 7.10118 -73.29729 9909 ft 294 kts 345°
2026-04-25 15:14 7.12070 -73.30278 9511 ft 289 kts 344°
2026-04-25 15:14 7.13984 -73.30818 9133 ft 283 kts 344°
2026-04-25 15:14 7.15828 -73.31339 8867 ft 274 kts 344°
2026-04-25 15:14 7.17652 -73.31854 8647 ft 264 kts 344°
2026-04-25 15:15 7.19383 -73.32343 8447 ft 254 kts 344°
2026-04-25 15:15 7.21067 -73.32819 8267 ft 249 kts 344°
2026-04-25 15:15 7.22699 -73.33276 8093 ft 245 kts 347°
2026-04-25 15:15 7.24375 -73.33272 7897 ft 241 kts 18°
2026-04-25 15:16 7.25773 -73.32409 7755 ft 235 kts 47°
2026-04-25 15:16 7.26625 -73.31055 7610 ft 225 kts 66°
2026-04-25 15:16 7.27710 -73.28180 7273 ft 217 kts 70°
2026-04-25 15:17 7.28132 -73.25259 6939 ft 215 kts 112°
2026-04-25 15:17 7.27244 -73.24093 6702 ft 210 kts 146°
2026-04-25 15:17 7.25957 -73.23451 6482 ft 205 kts 159°
2026-04-25 15:18 7.24624 -73.22956 6197 ft 203 kts 160°
2026-04-25 15:18 7.22072 -73.22022 5682 ft 185 kts 160°
2026-04-25 15:18 7.20884 -73.21584 5431 ft 179 kts 160°
2026-04-25 15:19 7.19740 -73.21156 5272 ft 168 kts 160°
2026-04-25 15:19 7.19371 -73.21018 5269 ft 167 kts 160°
2026-04-25 15:19 7.17564 -73.20344 5260 ft 167 kts 160°
2026-04-25 15:19 7.16469 -73.19918 4860 ft 168 kts 159°
2026-04-25 15:20 7.15412 -73.19497 4476 ft 157 kts 159°
2026-04-25 15:20 7.14437 -73.19132 4117 ft 144 kts 159°
2026-04-25 15:20 7.13533 -73.18803 3959 ft 135 kts 160°
2026-04-25 15:20 7.12744 -73.18511 3904 ft 103 kts 159°
2026-04-25 15:21 7.12214 -73.18312 3883 ft 60 kts 159°
2026-04-25 15:21 7.11857 -73.18177 3864 ft 53 kts 159°
2026-04-25 15:21 7.11693 -73.18115 3848 ft 17 kts 159°
2026-04-25 15:21 7.11650 -73.18084 3854 ft 5 kts 109°
2026-04-25 15:22 7.11662 -73.18044 3851 ft 8 kts 64°
2026-04-25 15:22 7.11691 -73.18027 3842 ft 6 kts 353°
2026-04-25 15:22 7.11762 -73.18047 3858 ft 15 kts 343°
2026-04-25 15:22 7.11881 -73.18084 3865 ft 19 kts 342°
2026-04-25 15:23 7.12008 -73.18124 3876 ft 19 kts 342°
2026-04-25 15:23 7.12129 -73.18170 3881 ft 18 kts 339°
2026-04-25 15:23 7.12245 -73.18214 3885 ft 18 kts 339°
2026-04-25 15:23 7.12358 -73.18257 3889 ft 17 kts 339°
2026-04-25 15:24 7.12465 -73.18300 3894 ft 16 kts 338°
2026-04-25 15:24 7.12569 -73.18340 3897 ft 16 kts 339°
2026-04-25 15:24 7.12652 -73.18371 3898 ft 8 kts 342°
2026-04-25 15:24 7.12670 -73.18369 3900 ft 8 kts 21°
2026-04-25 15:25 7.12676 -73.18316 3902 ft 6 kts 94°
2026-04-25 15:25 7.12683 -73.18259 3899 ft 10 kts 96°
2026-04-25 15:25 7.12674 -73.18193 3899 ft 9 kts 100°
2026-04-25 15:25 7.12670 -73.18163 3899 ft 0 kts 75°
2026-04-25 15:26 7.12672 -73.18161 3899 ft 0 kts 56°
2026-04-25 15:26 7.12676 -73.18160 3899 ft 1 kts 26°
2026-04-25 15:26 7.12684 -73.18158 3896 ft 1 kts 14°
2026-04-25 15:26 7.12694 -73.18155 3896 ft 2 kts 14°
2026-04-25 15:27 7.12710 -73.18151 3898 ft 3 kts 14°
2026-04-25 15:27 7.12713 -73.18150 3897 ft 0 kts 12°